Погода в Кызылжаре

Погода в Кызылжаре : погода сейчас, прогноз погоды и архив. Всё, что Вы хотите узнать о погоде в Кызылжаре!

Поиск расширенной информации на нашем сайте:

Другие новости

Новости СМИ2

Главная страница сайта

Новости сайта

03.07.2017

Напоминаем, что на нашем специализированном сайте Метеоцентр.Азия вы можете получить высокодетализированные автоматические прогнозы погоды по пунктам России, СНГ и мира в авиационном формате (включающие направление и скорость ветра, видимость, явления погоды, количество и форму облачности, нижнюю и верхнюю границу облачности).

Рекомендуем: Годування собаки

Погода в Кызылжаре - сегодня

Время (UTC), дата Ветер
(°,м/с) 
Видим.   Явления Облачность Т
(°С)
Тd
(°С)
f(%) Тe
(°С)
Pmin
(гПа)
dP
(гПа)
Po
(мм)
O2
(г/м3)
Тmin Tmax R s Состояние
почвы
09 22.06.18 290 (З) 20000 м    6/6 2000 м средняя, верхняя 
[Ac cast|Ci fib]
+29.4 +12.3 35 +35  1000.5  0.5  721  260           
12 22.06.18 230 (ЮЗ) 20000 м    10/10 1000 м 
[Cu med, cong]
+29.3 +9.4 29 +30  1000.1  -0.5  720  261           
15 22.06.18 230 (ЮЗ) 20000 м    8/6 1000 м средняя, верхняя 
[Cu hum|Ac As|Ci sp]
+23.6 +10 42 +26  1000.9  720  265    +32.2       
18 22.06.18 240 (ЮЗ) н/о    8/0 верхняя 
[Ci sp]
+21.7 +12.1 54 +27  1002.1  1.2  721  267    +32.2       
21 22.06.18 240 (ЮЗ) н/о    8/0 верхняя 
[Ci sp]
+18.2 +9.4 56 +20  1002.6  721  271           
00 23.06.18 тихо ()   20000 м    8/8 1000 м 
[Cu med, cong]
+15.2 +8.6 65 +15  1003.3  0.3  721  274           
06 23.06.18 300 (СЗ) 20000 м    3/0 верхняя 
[Ci fib]
+25.5 +7.5 32 +26  1002.5  722  265  +15.2         
09 23.06.18 290 (З) 20000 м    6/6 1000 м 
[Cu med, cong]
+28.1 +7.1 27 +28  1001.1  -1.3  721  262           
12 23.06.18 310 (СЗ) 20000 м    8/8 1000 м 
[Cu med, cong]
+27.8 +7.5 28 +28  1000.7  -0.7  721  262           
15 23.06.18 320 (СЗ) 20000 м    4/4 1000 м 
[Cu hum]
+25.8 +8.3 33 +26  1001.5  0.8  721  264    +28.3       
18 23.06.18 290 (З) н/о    ясно 
+19.2 +8.4 50 +21  1002.9  0.5  721  270    +28.3       
21 23.06.18 260 (З) н/о    ясно 
+15.9 +7.9 59 +17  1002.9  -0.5  721  273           
00 24.06.18 290 (З) 20000 м    8/8 1000 м 
[Cu hum]
+16.6 +11.1 70 +21  1004  1.5  722  272           
03 24.06.18 030 (СВ) 20000 м  {ливн. осадки}  9/9 600 м кучево-дожд. 
[Cb cap]
+18.6 +12.8 69 +26  1003.4  -0.3  722  270           
06 24.06.18 020 (С) 20000 м  {ливн. осадки}  6/6 1000 м 
[Cu med, cong]
+25.4 +9.9 38 +27  1002.4  -0.1  722  264  +15.9    0.0     
09 24.06.18 020 (С) 20000 м    8/8 600 м кучево-дожд. 
[Cb cap]
+27.8 +14 43 +36  1001.6  -0.5  721  261           
12 24.06.18 030 (СВ) 20000 м    8/8 1000 м 
[Cu med, cong]
+27.7 +6.7 26 +28  1002  0.4  722  263           
15 24.06.18 020 (С) 20000 м    8/8 2000 м средняя 
[Ac As]
+23.8 +10 42 +26  1004.2  2.1  723  266    +27.8       
18 24.06.18 030 (СВ) н/о    8/8 2000 м средняя 
[Ac As]
+18.9 +11.8 63 +24  1006.4  724  271    +27.8       
21 24.06.18 020 (С) н/о    8/8 2000 м средняя 
[Ac As]
+16.8 +11.2 70 +22  1006.1  -0.8  724  272           
00 25.06.18 340 (С) 20000 м    6/6 2000 м средняя 
[Ac lent]
+14.2 +10.9 81 +18  1007.8  1.6  724  275           
03 25.06.18 350 (С) 20000 м    3/0 верхняя 
[Ci fib]
+18.7 +12.9 69 +26  1007.6  0.7  725  271           
06 25.06.18 360 (С) 20000 м    9/9 1000 м верхняя 
[Cu med, cong|Ci sp]
+24 +12.1 47 +29  1006.4  -0.5  725  266  +13.6         
09 25.06.18 320 (СЗ) 20000 м    9/8 600 м кучево-дожд., верхняя 
[Cb cap|Ci sp]
+24.1 +11.6 45 +28  1005.6  -1.1  724  266           
12 25.06.18 340 (С) 20000 м    9/9 600 м кучево-дожд. 
[Cb cap]
+24 +10.3 42 +26  1005.7  0.1  724  266           
Время (UTC), дата Ветер
(°,м/с) 
Видим.   Явления Облачность Т
(°С)
Тd
(°С)
f(%) Тe
(°С)
Pmin
(гПа)
dP
(гПа)
Po
(мм)
O2
(г/м3)
Тmin Tmax R s Состояние
почвы

Для получения пояснительной информации подведите курсор к названию столбца.

ПОГОДА в Кызылжаре - архив

Всё, что Вы хотите узнать о погоде в Кызылжаре - удобно и подробно!

Выберите нужную дату (начиная с 1 января 2015* года) и нажмите кнопку "Найти".
Будут отображены архивные сводки погоды по пункту Кызылжар, начиная с указанной даты.


Отображать данные в формате CSV (для использования в таблицах Excel)


Внимание! Наш архив погоды предназначен исключительно для личного некоммерческого использования в познавательных целях. Если Вам необходимы официальные справки о состоянии погоды (для производственных, юридических, коммерческих и т.п. целей), обращайтесь в органы Росгидромета.

*Примечание: данная дата относится к архиву по метеостанциям СССР (Россия, СНГ, Балтия).
Архив по метеостанциям Зарубежной Европы и Азии (кроме Китая) хранится 10 дней, по другим регионам земного шара (Китай, Африка, Америка, Австралия, Океания) - 1 день.

Кызылжар - район местоположения метеостанции


Название, широта, долгота, высота метеостанции:
Кызылжар 48.3°ш. 69.6°д. 361 м над ур. моря [Казахстан]

Дополнительная информация

В oтличие oт бoльшинства пoгoдных сайтoв мы публикуем пoдрoбную метеoинфoрмацию в детальнoм прoфессиoнальнoм фoрмате.

Характеристики температуры и влажнoсти вoздуха измеряются на высoте 2 м в тени вдали oт зданий и деревьев.
Скoрoсть ветра измеряется на высoте 10 м (на урoвне рoста челoвека скoрoсть ветра ниже в 1.5-2 раза). Если метеoстанция нахoдится в гoрoде или в лесу, тo скoрoсть ветра занижена на 2-4 м/с пo сравнению с oткрытым местoм. Скoрoсть ветра над акватoриями крупных рек и oзёр, а также на вершинах хoлмoв на 2-5 м/с выше, чем в oбычных услoвиях.
Атмoсфернoе давление в разных тoчках местнoсти мoжет значительнo oтличаться oт давления на метеoстанции, в зависимoсти oт услoвий рельефа (при пoдъёме на 10 м давление пoнижается примернo на 1 мм рт.ст.).